Погода в Сапроново

Россия / Амурская область     51°24′40″N   128°51′40″E
темп.,
°C
ветер,
м/с
пор.,
м/с
влажн.,
%
обл.,
%
осадки,
мм/ч
давл.,
гПа
погр.,
м
27 июля, вт
вт2700:00+20всв2297100 1.2 100236
03:00+20ссв2397100 1.6 100276
06:00+20св2296100 0.0 100368
09:00+21с239073 0.0 1004223
12:00+26ссв236595 0.0 10031042
15:00+28зсз125799 0.1 10031412
18:00+27ю1269100 0.0 1002412
21:00+23ю2281100 0.0 100223
28 июля, ср
ср2800:00+22вюв2289100 0.1 100241
03:00+20юв2697100 0.8 1002171
06:00+21вюв4109789 0.5 1001403
09:00+22ююв5994100 0.6 1001587
12:00+25юз587226 0.3 10001118
15:00+26ю587099 0.3 999583
18:00+26зюз36708 0.1 999219
21:00+22ююз33786 0.1 100032
29 июля, чт
чт2900:00+20зюз2285100 0.0 100029
03:00+19сз2287100 0.0 100116
06:00+20с118848 0.0 100130
09:00+24сз117086 0.0 1001520
12:00+27юз33625 0.0 1000954
15:00+29зюз355252 0.0 9981947
18:00+28сз236298 0.0 998267
21:00+23юв2266100 0.0 99812
30 июля, пт
пт3000:00+21сз1183100 0.6 99811
03:00+18с2294100 2.2 99825
06:00+18ссз2497100 3.1 998140
09:00+22ссз348245 3.3 998669
12:00+23сз567780 0.6 998979
15:00+22сз7864100 0.7 9991307
18:00+17с7107369 0.0 1001770
21:00+14ссв613710 0.0 1004668
31 июля, сб
сб3100:00+12ссв515740 0.0 1005530
03:00+12ссв412720 0.0 1006436
06:00+11с412770 0.0 1008437
09:00+17ссв57590 0.0 1010832
12:00+20ссв685035 0.0 10101797
15:00+20ссв79513 0.0 10101561
18:00+19св695470 0.0 10111315
21:00+14ссв3470100 0.0 101349